Dewpoint
38 38 38 39 38 38 38 39 39 39 39 39 38 37 37 37 37 37 38 39 40 42 44 46 48 50 52 53 54 55 56 57 57 56 55 55 56 56 57 57 58 58 58 58 57 57 57 56 56 55 54 53 53 53 52 51 52 52 51 50 48 46 46 47 46 44 43 42 40
37 38 39 38 38 38 38 38 38 38 38 39 39 38 38 37 37 37 37 37 39 41 43 45 48 50 52 53 54 54 55 55 56 55 54 54 54 55 55 55 56 57 57 57 56 55 55 55 54 53 53 52 53 53 53 51 51 52 52 51 49 48 48 50 49 46 44 42 40
38 39 40 39 38 38 38 37 37 37 37 38 39 39 39 39 39 39 38 38 39 40 42 44 48 51 52 53 53 53 53 54 54 54 54 53 53 53 53 53 53 53 54 54 54 53 53 53 52 51 50 50 51 52 52 51 53 53 53 52 51 51 51 52 52 50 48 45 42
39 39 39 38 38 38 38 38 38 37 37 38 39 40 40 41 41 41 41 41 41 41 41 44 50 53 54 54 53 53 52 52 52 53 53 53 52 52 52 51 51 51 51 52 52 52 52 51 50 49 49 49 50 50 50 51 52 53 53 52 52 52 52 52 52 52 51 50 48
39 39 39 38 38 38 39 39 39 39 39 39 39 39 39 41 42 43 43 43 42 41 41 44 50 53 55 53 53 52 51 51 50 50 51 52 52 51 50 50 50 50 49 49 49 49 49 49 49 48 48 48 48 48 48 50 51 51 51 50 51 51 51 51 51 51 51 50 50
37 38 39 39 39 39 39 39 39 40 40 41 40 39 39 39 39 40 40 41 41 41 42 44 48 51 52 52 52 51 51 50 50 50 50 50 50 50 50 49 49 49 49 49 48 48 48 48 48 48 48 47 47 48 48 49 50 49 48 48 48 48 49 49 49 49 49 48 48
32 33 35 37 38 39 39 39 40 41 41 41 40 39 39 39 39 39 40 41 42 43 44 45 47 48 49 50 51 51 50 50 50 50 50 50 49 49 49 48 48 48 48 48 48 48 47 47 47 46 46 45 46 47 48 49 48 48 47 46 46 47 48 48 47 47 46 45 44
28 29 30 33 35 37 38 38 39 39 39 39 40 39 39 40 40 40 39 40 41 43 44 46 48 48 49 50 50 51 51 50 50 50 49 49 49 48 48 48 48 48 48 47 47 47 47 46 46 45 45 45 45 46 47 48 47 46 45 45 45 46 46 45 45 45 44 43 40
26 28 29 30 33 34 35 36 37 37 37 38 39 40 40 40 41 41 40 39 41 43 45 46 48 48 49 49 50 50 50 49 49 49 49 49 48 47 47 46 46 46 47 46 46 46 46 45 45 44 44 44 45 45 46 46 46 45 45 44 44 45 45 44 44 44 43 42 41
26 27 28 29 30 32 33 34 35 35 36 37 38 38 39 38 39 39 39 39 43 45 46 48 48 48 49 49 50 49 48 48 48 48 48 48 47 47 46 46 45 45 45 45 45 45 45 45 44 44 44 44 44 44 45 45 44 44 44 44 44 44 44 44 43 43 42 41 41
26 27 28 28 29 30 30 32 33 34 35 35 36 37 38 38 38 38 39 40 44 45 46 48 48 48 47 47 47 47 48 48 47 47 47 47 47 46 46 46 45 44 44 44 44 45 45 44 44 43 43 43 43 44 44 44 44 43 43 43 43 43 42 42 42 42 41 41 40
26 27 27 28 29 29 30 30 31 32 33 34 35 36 37 37 38 38 39 40 41 42 43 44 44 44 44 43 44 45 47 48 47 47 46 46 46 46 46 45 45 44 44 44 44 44 44 44 43 42 42 43 43 43 43 43 43 42 42 42 42 42 41 41 41 41 41 40 39
26 27 27 28 29 29 30 30 31 31 33 34 35 36 36 37 37 37 38 38 39 40 41 43 43 43 42 42 43 45 46 47 47 47 46 46 46 46 45 45 44 44 44 43 43 44 44 43 42 41 41 42 42 42 42 42 41 41 41 41 41 40 40 40 39 39 39 39 37
26 27 27 28 29 29 30 30 31 31 32 34 35 35 36 37 37 37 37 38 39 40 41 42 42 43 43 44 44 45 46 47 47 46 46 45 46 45 45 45 44 44 44 43 43 43 43 42 41 41 40 40 41 41 41 41 40 40 39 39 39 39 39 39 38 38 37 36 36
26 27 27 28 29 29 30 30 31 32 32 33 34 35 36 37 37 37 38 39 39 41 42 43 43 43 44 44 45 45 46 47 46 46 45 45 45 45 45 45 44 44 44 43 43 42 42 41 40 40 39 39 39 40 40 40 39 39 39 39 38 38 38 38 37 36 36 35 35
26 26 27 28 29 30 30 31 31 32 33 33 35 35 36 37 38 39 39 41 42 42 43 44 44 44 44 45 45 46 47 47 46 46 45 45 45 45 44 44 44 44 43 42 42 42 41 41 40 39 39 39 39 39 39 39 39 38 38 38 37 37 37 36 36 35 35 35 34
26 26 27 28 29 30 30 31 32 33 33 34 35 35 36 37 38 38 39 41 43 44 44 45 45 45 46 46 47 47 47 47 46 46 45 45 44 44 44 44 44 43 43 42 42 41 40 40 39 39 38 38 38 38 38 38 37 37 37 37 37 36 36 36 35 35 35 35 35
26 26 27 28 29 30 32 33 33 34 34 35 35 35 36 37 38 38 39 39 42 44 45 47 46 46 46 46 47 47 47 46 46 45 45 44 44 44 44 44 43 43 43 42 41 40 40 39 39 39 38 38 38 37 37 37 36 36 36 36 36 36 35 35 35 35 35 35 35
26 27 28 29 30 31 32 33 34 35 35 35 36 36 36 37 38 38 39 39 40 42 44 46 47 47 47 47 47 47 46 46 45 45 45 44 44 44 44 43 43 43 42 42 41 40 39 39 39 38 38 38 37 37 37 36 36 36 35 35 35 35 35 35 35 35 35 35 35
27 28 29 30 31 32 33 34 35 36 36 36 36 37 38 38 39 39 39 39 40 41 44 45 46 47 47 47 47 46 46 46 45 45 44 44 44 44 43 43 43 42 42 41 41 40 39 39 39 38 38 38 37 37 36 36 36 36 36 35 35 35 35 35 35 35 35 35 35
27 28 30 30 32 33 34 35 35 36 36 37 38 39 39 40 40 40 40 40 41 42 43 44 45 46 47 47 46 46 46 46 45 45 44 44 44 44 43 43 43 42 42 42 41 40 39 39 39 38 38 38 37 37 37 36 36 36 36 36 36 36 36 36 36 36 35 35 35
28 30 30 31 33 34 35 36 36 37 38 39 39 39 40 41 41 41 41 41 41 42 42 43 44 45 46 47 46 46 46 46 46 45 44 44 44 44 43 43 43 42 42 42 41 40 39 39 39 39 38 38 37 37 37 37 37 36 36 36 36 36 36 36 35 35 35 34 33
30 30 32 33 34 35 35 36 36 37 38 39 39 39 40 41 41 41 41 41 41 41 42 42 44 45 46 47 47 46 46 46 46 46 45 45 44 44 44 44 43 42 42 43 42 41 40 39 39 39 38 38 38 37 37 36 36 36 36 35 35 35 35 35 34 34 33 32 31
32 32 33 34 35 35 36 36 36 36 36 37 38 39 39 40 41 41 41 42 42 42 42 43 44 44 45 46 47 47 46 46 46 45 45 45 44 44 44 44 43 43 44 44 43 42 41 39 39 39 38 38 37 37 36 36 35 35 35 35 34 34 34 33 32 32 30 30 29
34 34 34 35 35 36 36 36 35 35 35 35 36 38 39 40 40 41 41 42 42 42 42 43 43 44 45 46 46 47 46 46 45 45 45 45 44 44 44 44 44 44 44 44 42 40 39 39 39 38 38 37 36 36 35 35 35 34 34 34 33 32 32 31 30 29 28 27 26
35 35 35 35 35 35 36 35 35 34 33 33 34 35 37 39 40 40 41 41 42 42 43 43 44 44 44 45 46 46 46 46 45 45 45 44 44 44 44 44 44 44 44 43 40 39 39 39 38 37 36 36 36 35 35 35 34 34 33 32 32 31 30 29 27 26 25 24 23
35 35 35 35 35 35 35 34 34 33 32 32 33 33 35 37 39 39 40 40 41 42 43 43 44 44 44 45 45 46 46 46 45 45 44 44 44 44 44 44 44 44 44 42 39 39 38 38 38 37 36 35 35 35 34 34 34 33 32 31 30 30 28 27 26 25 23 22 23
36 36 35 35 35 34 34 33 33 33 32 32 32 33 34 35 36 38 39 40 41 41 42 43 43 44 44 45 45 45 45 45 45 45 44 44 44 44 44 44 44 44 43 40 39 39 39 39 38 37 36 35 34 34 34 33 32 31 30 30 29 28 27 26 24 24 23 23 24
37 37 36 36 35 34 34 34 34 33 32 32 32 33 33 34 35 36 38 39 39 40 41 42 43 44 45 45 45 45 45 45 45 44 44 44 44 44 44 44 44 43 41 39 39 39 39 38 37 36 35 35 34 33 32 31 30 29 28 28 27 26 24 23 23 23 24 25 25
36 37 37 37 35 35 34 34 34 34 33 33 32 32 33 33 34 35 36 38 39 39 40 41 43 44 45 45 45 44 44 44 44 44 44 44 44 43 43 43 43 42 40 39 39 39 39 38 37 36 35 35 34 33 31 30 29 28 27 26 25 24 23 22 22 23 24 24 25
35 36 37 37 36 35 35 35 35 34 33 32 32 32 32 32 33 33 35 36 38 39 40 41 42 44 44 45 44 44 44 44 44 44 44 43 43 43 43 43 43 41 39 39 39 39 38 37 36 35 35 34 33 31 30 29 28 27 26 25 24 23 22 22 22 23 23 23 23
34 35 36 36 36 36 35 34 34 34 33 32 31 31 31 31 32 34 35 37 38 39 40 41 42 43 44 44 44 44 44 44 43 43 43 43 43 43 43 43 41 40 39 39 39 38 37 37 35 35 34 33 32 30 28 27 26 25 25 23 22 22 22 21 22 22 22 21 21
33 33 34 35 35 35 35 34 34 34 33 33 32 31 31 31 33 34 35 37 38 39 39 40 42 43 44 44 44 44 43 43 43 43 43 44 44 43 42 41 40 39 38 38 38 37 36 36 35 35 34 33 31 29 26 25 23 23 23 22 21 21 22 22 21 21 21 20 20
35 34 32 32 33 34 35 35 35 35 35 34 34 33 32 32 34 35 35 37 38 39 40 41 42 44 44 44 44 44 43 43 43 43 44 44 44 43 42 40 39 38 38 37 37 36 36 35 35 34 33 32 30 27 25 23 22 21 21 21 21 22 22 22 21 20 20 19 20
35 34 32 32 32 32 34 35 35 35 35 35 34 34 33 34 34 35 36 37 38 39 40 41 43 44 45 44 44 43 43 43 43 44 44 44 43 42 40 39 38 37 37 37 36 36 35 35 34 33 32 30 28 25 22 21 21 21 21 21 21 22 22 21 21 20 21 21 21
33 34 34 34 32 32 32 34 34 34 34 34 33 33 34 35 35 36 37 37 38 39 39 40 43 44 44 44 44 43 43 43 43 43 44 43 42 40 39 38 37 37 36 36 35 35 35 34 33 32 30 29 26 24 22 21 21 21 21 21 21 22 23 23 22 23 23 23 22
32 34 34 33 31 31 31 32 33 33 33 33 33 33 34 35 35 36 37 38 38 39 39 41 43 44 44 43 43 42 42 42 43 43 42 41 40 39 38 37 36 36 35 35 35 35 34 33 32 30 29 26 24 22 21 22 22 21 21 22 22 23 24 24 24 25 26 25 24
30 31 31 31 30 30 30 30 31 32 32 32 33 33 34 35 35 36 37 38 39 39 39 40 42 43 43 42 42 42 42 42 42 42 41 39 39 38 37 36 36 35 35 35 34 34 33 32 31 30 28 25 23 22 22 22 22 22 22 23 23 24 25 25 25 26 26 25 26
26 27 28 29 29 29 29 29 30 31 31 31 31 32 34 35 36 37 38 38 39 39 39 40 42 43 43 42 41 40 40 41 41 41 40 38 37 36 36 35 35 35 34 34 33 32 31 31 30 30 28 25 23 23 22 22 23 23 24 24 24 25 25 25 25 25 26 26 29
26 26 27 27 28 28 28 28 28 29 30 29 30 31 32 35 36 37 38 39 39 39 39 40 42 43 42 40 40 39 39 40 41 40 39 37 36 35 35 35 34 33 32 32 32 31 30 30 30 30 28 25 24 24 23 23 23 24 24 24 24 24 24 25 25 24 25 26 28
26 26 26 26 27 27 27 27 27 27 28 28 30 31 33 35 36 37 38 39 39 39 40 41 43 43 42 40 39 39 38 39 39 39 39 37 35 35 34 34 32 31 30 31 31 30 30 31 30 30 29 26 25 24 23 23 23 24 24 24 24 23 23 24 24 24 24 24 25